| time (UTC) | temp F | wind direction | speed MPH | gust MPH | rain 1hr in | rain 24hr in | rain mn in | humidity % | barometer mb |
| 20260508191800 | 76 | 306 | 16.0 | 25.0 | 0.00 | 0.00 | 0.00 | 26 | 1018.4 |
| 20260508190900 | 76 | 307 | 14.0 | 22.0 | 0.00 | 0.00 | 0.00 | 26 | 1018.4 |
| 20260508190000 | 76 | 307 | 12.0 | 21.0 | 0.00 | 0.00 | 0.00 | 27 | 1018.7 |
| 20260508185400 | 77 | 303 | 13.0 | 20.0 | 0.00 | 0.00 | 0.00 | 28 | 1018.7 |
| 20260508184500 | 57 | 135 | 1.0 | 2.0 | 0.00 | 0.00 | 0.00 | 53 | 1018.8 |
| 20260508183621 | 57 | 135 | 1.0 | 2.0 | 0.00 | 0.00 | 0.00 | 53 | 1018.9 |
| 20260508182700 | 57 | 135 | 1.0 | 2.0 | 0.00 | 0.00 | 0.00 | 53 | 1019.0 |
| 20260508181800 | 57 | 135 | 1.0 | 2.0 | 0.00 | 0.00 | 0.00 | 53 | 1019.1 |
| 20260508180900 | 57 | 135 | 1.0 | 2.0 | 0.00 | 0.00 | 0.00 | 53 | 1019.1 |
| 20260508180000 | 57 | 135 | 1.0 | 2.0 | 0.00 | 0.00 | 0.00 | 53 | 1019.1 |
| 20260508175421 | 57 | 135 | 1.0 | 2.0 | 0.00 | 0.00 | 0.00 | 53 | 1019.1 |
| 20260508174500 | 57 | 135 | 1.0 | 2.0 | 0.00 | 0.00 | 0.00 | 53 | 1019.2 |
| 20260508173600 | 57 | 135 | 1.0 | 2.0 | 0.00 | 0.00 | 0.00 | 53 | 1019.2 |
| 20260508172721 | 57 | 135 | 1.0 | 2.0 | 0.00 | 0.00 | 0.00 | 53 | 1019.2 |
| 20260508171800 | 57 | 135 | 1.0 | 2.0 | 0.00 | 0.00 | 0.00 | 53 | 1019.2 |
| 20260508170900 | 57 | 135 | 1.0 | 2.0 | 0.00 | 0.00 | 0.00 | 53 | 1019.3 |
| 20260508170021 | 57 | 135 | 1.0 | 2.0 | 0.00 | 0.00 | 0.00 | 53 | 1019.3 |
| 20260508165400 | 57 | 135 | 1.0 | 2.0 | 0.00 | 0.00 | 0.00 | 53 | 1019.3 |
| 20260508164521 | 57 | 135 | 1.0 | 2.0 | 0.00 | 0.00 | 0.00 | 53 | 1019.3 |
| 20260508163600 | 57 | 135 | 1.0 | 2.0 | 0.00 | 0.00 | 0.00 | 53 | 1019.3 |
| 20260508162700 | 57 | 135 | 1.0 | 2.0 | 0.00 | 0.00 | 0.00 | 53 | 1019.2 |
| 20260508133602 | 48 | 0 | 0.0 | 0.0 | 0.00 | 0.00 | 0.00 | 50 | 1018.7 |
| 20260508132702 | 47 | 0 | 0.0 | 4.0 | 0.00 | 0.00 | 0.00 | 50 | 1018.7 |
| 20260508131823 | 47 | 134 | 1.0 | 4.0 | 0.00 | 0.00 | 0.00 | 50 | 1018.6 |
| 20260508130903 | 46 | 134 | 3.0 | 4.0 | 0.00 | 0.00 | 0.00 | 51 | 1018.5 |
| 20260508130003 | 46 | 134 | 1.0 | 2.0 | 0.00 | 0.00 | 0.00 | 52 | 1018.4 |
| 20260508125402 | 46 | 134 | 1.0 | 2.0 | 0.00 | 0.00 | 0.00 | 52 | 1018.3 |
| 20260508124503 | 47 | 134 | 0.0 | 2.0 | 0.00 | 0.00 | 0.00 | 52 | 1018.2 |
| 20260508123602 | 47 | 134 | 1.0 | 2.0 | 0.00 | 0.00 | 0.00 | 52 | 1018.1 |
| 20260508122702 | 47 | 134 | 1.0 | 2.0 | 0.00 | 0.00 | 0.00 | 52 | 1018.1 |
| 20260508121803 | 47 | 134 | 1.0 | 2.0 | 0.00 | 0.00 | 0.00 | 52 | 1017.8 |
| 20260508120902 | 47 | 134 | 1.0 | 2.0 | 0.00 | 0.00 | 0.00 | 53 | 1017.8 |
| 20260508120003 | 47 | 0 | 0.0 | 0.0 | 0.00 | 0.00 | 0.00 | 53 | 1017.8 |
| 20260508115403 | 47 | 134 | 0.0 | 1.0 | 0.00 | 0.00 | 0.00 | 54 | 1017.7 |
| 20260508114503 | 47 | 134 | 0.0 | 4.0 | 0.00 | 0.00 | 0.00 | 54 | 1017.7 |
| 20260508113602 | 48 | 134 | 1.0 | 4.0 | 0.00 | 0.00 | 0.00 | 54 | 1017.7 |
| 20260508112702 | 48 | 134 | 1.0 | 4.0 | 0.00 | 0.00 | 0.00 | 54 | 1017.5 |
| 20260508111803 | 48 | 134 | 1.0 | 5.0 | 0.00 | 0.00 | 0.00 | 54 | 1017.5 |
| 20260508110903 | 48 | 135 | 3.0 | 5.0 | 0.00 | 0.00 | 0.00 | 53 | 1017.5 |
| 20260508110003 | 48 | 141 | 3.0 | 5.0 | 0.00 | 0.00 | 0.00 | 54 | 1017.4 |
| 20260508105402 | 47 | 142 | 2.0 | 4.0 | 0.00 | 0.00 | 0.00 | 55 | 1017.3 |
| 20260508104503 | 48 | 142 | 1.0 | 5.0 | 0.00 | 0.00 | 0.00 | 56 | 1017.2 |
| 20260508103624 | 49 | 142 | 3.0 | 5.0 | 0.00 | 0.00 | 0.00 | 56 | 1017.2 |
| 20260508102702 | 49 | 151 | 3.0 | 5.0 | 0.00 | 0.00 | 0.00 | 56 | 1017.1 |
| 20260508101802 | 49 | 180 | 3.0 | 5.0 | 0.00 | 0.00 | 0.00 | 57 | 1017.1 |
| 20260508100902 | 50 | 69 | 1.0 | 5.0 | 0.00 | 0.00 | 0.00 | 57 | 1017.0 |
| 20260508100003 | 51 | 65 | 2.0 | 5.0 | 0.00 | 0.00 | 0.00 | 56 | 1017.0 |
| 20260508095424 | 52 | 57 | 3.0 | 7.0 | 0.00 | 0.00 | 0.00 | 56 | 1017.0 |
| 20260508094503 | 52 | 270 | 2.0 | 7.0 | 0.00 | 0.00 | 0.00 | 56 | 1016.9 |
| 20260508093603 | 52 | 283 | 5.0 | 7.0 | 0.00 | 0.00 | 0.00 | 56 | 1016.8 |
| 20260508092703 | 51 | 292 | 4.0 | 7.0 | 0.00 | 0.00 | 0.00 | 56 | 1016.8 |
| 20260508091803 | 50 | 306 | 0.0 | 5.0 | 0.00 | 0.00 | 0.00 | 56 | 1016.9 |
| 20260508090924 | 50 | 306 | 1.0 | 5.0 | 0.00 | 0.00 | 0.00 | 56 | 1016.8 |
| 20260508090003 | 50 | 360 | 3.0 | 5.0 | 0.00 | 0.00 | 0.00 | 58 | 1016.7 |
| 20260508085424 | 50 | 81 | 1.0 | 4.0 | 0.00 | 0.00 | 0.00 | 58 | 1016.7 |
| 20260508084502 | 51 | 0 | 0.0 | 0.0 | 0.00 | 0.00 | 0.00 | 57 | 1016.6 |
| 20260508083624 | 51 | 94 | 0.0 | 4.0 | 0.00 | 0.00 | 0.00 | 57 | 1016.7 |
| 20260508082703 | 51 | 94 | 2.0 | 4.0 | 0.00 | 0.00 | 0.00 | 58 | 1016.8 |
| 20260508081802 | 51 | 94 | 0.0 | 2.0 | 0.00 | 0.00 | 0.00 | 58 | 1016.8 |
| 20260508080902 | 51 | 0 | 0.0 | 2.0 | 0.00 | 0.00 | 0.00 | 58 | 1016.8 |
| 20260508080003 | 51 | 94 | 0.0 | 2.0 | 0.00 | 0.00 | 0.00 | 57 | 1016.8 |
| 20260508075402 | 52 | 93 | 2.0 | 4.0 | 0.00 | 0.00 | 0.00 | 56 | 1016.7 |
| 20260508074524 | 53 | 84 | 2.0 | 5.0 | 0.00 | 0.00 | 0.00 | 55 | 1016.8 |
| 20260508073603 | 54 | 10 | 1.0 | 2.0 | 0.00 | 0.00 | 0.00 | 53 | 1016.8 |
| 20260508072702 | 54 | 337 | 2.0 | 5.0 | 0.00 | 0.00 | 0.00 | 55 | 1016.6 |
| 20260508071803 | 53 | 318 | 3.0 | 5.0 | 0.00 | 0.00 | 0.00 | 56 | 1016.8 |
| 20260508070902 | 53 | 338 | 4.0 | 6.0 | 0.00 | 0.00 | 0.00 | 56 | 1016.8 |
| 20260508070003 | 52 | 295 | 2.0 | 6.0 | 0.00 | 0.00 | 0.00 | 57 | 1016.7 |
| 20260508065403 | 52 | 294 | 2.0 | 6.0 | 0.00 | 0.00 | 0.00 | 57 | 1016.7 |
| 20260508064503 | 52 | 313 | 4.0 | 6.0 | 0.00 | 0.00 | 0.00 | 57 | 1016.8 |
| 20260508063603 | 54 | 73 | 1.0 | 5.0 | 0.00 | 0.00 | 0.00 | 57 | 1016.7 |
| 20260508062703 | 54 | 117 | 1.0 | 5.0 | 0.00 | 0.00 | 0.00 | 57 | 1016.6 |
| 20260508061824 | 54 | 117 | 0.0 | 1.0 | 0.00 | 0.00 | 0.00 | 56 | 1016.5 |
| 20260508060903 | 54 | 0 | 0.0 | 0.0 | 0.00 | 0.00 | 0.00 | 55 | 1016.3 |
| 20260508060024 | 55 | 117 | 0.0 | 2.0 | 0.00 | 0.00 | 0.00 | 54 | 1016.2 |
| 20260508055403 | 55 | 117 | 0.0 | 1.0 | 0.00 | 0.00 | 0.00 | 54 | 1016.2 |
| 20260508054502 | 55 | 117 | 0.0 | 2.0 | 0.00 | 0.00 | 0.00 | 54 | 1016.2 |
| 20260508053603 | 55 | 50 | 2.0 | 4.0 | 0.00 | 0.00 | 0.00 | 54 | 1016.2 |
| 20260508052702 | 55 | 0 | 0.0 | 0.0 | 0.00 | 0.00 | 0.00 | 54 | 1016.1 |
| 20260508051824 | 56 | 0 | 0.0 | 0.0 | 0.00 | 0.00 | 0.00 | 52 | 1016.1 |
| 20260508050903 | 57 | 26 | 0.0 | 4.0 | 0.00 | 0.00 | 0.00 | 51 | 1016.1 |
| 20260508050003 | 57 | 23 | 1.0 | 4.0 | 0.00 | 0.00 | 0.00 | 51 | 1016.1 |
| 20260508045403 | 58 | 9 | 0.0 | 2.0 | 0.00 | 0.00 | 0.00 | 50 | 1016.0 |
| 20260508044503 | 58 | 277 | 0.0 | 1.0 | 0.00 | 0.00 | 0.00 | 49 | 1016.0 |
| 20260508043603 | 59 | 277 | 1.0 | 2.0 | 0.00 | 0.00 | 0.00 | 49 | 1016.1 |
| 20260508042703 | 59 | 276 | 1.0 | 2.0 | 0.00 | 0.00 | 0.00 | 48 | 1016.1 |
| 20260508041803 | 59 | 276 | 0.0 | 2.0 | 0.00 | 0.00 | 0.00 | 49 | 1016.1 |
| 20260508040903 | 60 | 270 | 1.0 | 4.0 | 0.00 | 0.00 | 0.00 | 47 | 1016.1 |
| 20260508040024 | 60 | 257 | 0.0 | 1.0 | 0.00 | 0.00 | 0.00 | 45 | 1016.0 |
| 20260508035403 | 61 | 257 | 0.0 | 4.0 | 0.00 | 0.00 | 0.00 | 45 | 1016.0 |
| 20260508034503 | 62 | 252 | 2.0 | 5.0 | 0.00 | 0.00 | 0.00 | 42 | 1015.9 |
| 20260508033624 | 62 | 243 | 1.0 | 2.0 | 0.00 | 0.00 | 0.00 | 42 | 1015.8 |
| 20260508032724 | 63 | 0 | 0.0 | 0.0 | 0.00 | 0.00 | 0.00 | 40 | 1015.9 |
| 20260508031803 | 63 | 242 | 1.0 | 4.0 | 0.00 | 0.00 | 0.00 | 38 | 1015.8 |
| 20260508030902 | 64 | 234 | 2.0 | 4.0 | 0.00 | 0.00 | 0.00 | 37 | 1015.5 |
| 20260508030003 | 64 | 228 | 2.0 | 4.0 | 0.00 | 0.00 | 0.00 | 37 | 1015.4 |
| 20260508025403 | 66 | 197 | 0.0 | 1.0 | 0.00 | 0.00 | 0.00 | 38 | 1015.5 |
| 20260508024503 | 67 | 0 | 0.0 | 2.0 | 0.00 | 0.00 | 0.00 | 36 | 1015.4 |
| 20260508023624 | 69 | 197 | 1.0 | 2.0 | 0.00 | 0.00 | 0.00 | 33 | 1015.4 |
| 20260508022724 | 71 | 197 | 0.0 | 2.0 | 0.00 | 0.00 | 0.00 | 32 | 1015.3 |
| 20260508021824 | 73 | 0 | 0.0 | 0.0 | 0.00 | 0.00 | 0.00 | 28 | 1015.2 |
| 20260508020924 | 75 | 0 | 0.0 | 0.0 | 0.00 | 0.00 | 0.00 | 26 | 1015.2 |
| 20260508020003 | 76 | 0 | 0.0 | 0.0 | 0.00 | 0.00 | 0.00 | 27 | 1015.1 |
| 20260508015402 | 76 | 0 | 0.0 | 0.0 | 0.00 | 0.00 | 0.00 | 25 | 1015.0 |
| 20260508014524 | 75 | 0 | 0.0 | 0.0 | 0.00 | 0.00 | 0.00 | 25 | 1015.0 |
| 20260508013624 | 76 | 0 | 0.0 | 0.0 | 0.00 | 0.00 | 0.00 | 26 | 1015.1 |
| 20260508012702 | 76 | 0 | 0.0 | 0.0 | 0.00 | 0.00 | 0.00 | 25 | 1015.1 |
| 20260508011803 | 75 | 292 | 1.0 | 11.0 | 0.00 | 0.00 | 0.00 | 26 | 1015.1 |
| 20260508010903 | 75 | 292 | 1.0 | 11.0 | 0.00 | 0.00 | 0.00 | 26 | 1015.2 |
| 20260508010003 | 75 | 292 | 1.0 | 11.0 | 0.00 | 0.00 | 0.00 | 26 | 1015.4 |
| 20260508005403 | 75 | 292 | 1.0 | 11.0 | 0.00 | 0.00 | 0.00 | 26 | 1015.4 |
| 20260508004503 | 75 | 292 | 1.0 | 11.0 | 0.00 | 0.00 | 0.00 | 26 | 1015.4 |
| 20260508003624 | 75 | 292 | 1.0 | 11.0 | 0.00 | 0.00 | 0.00 | 26 | 1015.4 |
| 20260508002703 | 75 | 292 | 1.0 | 11.0 | 0.00 | 0.00 | 0.00 | 26 | 1015.5 |
| 20260508001824 | 75 | 308 | 7.0 | 11.0 | 0.00 | 0.00 | 0.00 | 26 | 1015.5 |
| 20260508000902 | 75 | 285 | 4.0 | 8.0 | 0.00 | 0.00 | 0.00 | 26 | 1015.6 |
| 20260508000003 | 75 | 285 | 7.0 | 13.0 | 0.00 | 0.00 | 0.00 | 25 | 1015.6 |
| 20260507235424 | 76 | 277 | 6.0 | 19.0 | 0.00 | 0.00 | 0.00 | 25 | 1015.7 |
| 20260507234503 | 77 | 299 | 7.0 | 19.0 | 0.00 | 0.00 | 0.00 | 26 | 1015.8 |
| 20260507233603 | 76 | 308 | 8.0 | 16.0 | 0.00 | 0.00 | 0.00 | 27 | 1015.8 |
| 20260507232702 | 77 | 307 | 7.0 | 13.0 | 0.00 | 0.00 | 0.00 | 26 | 1015.9 |
| 20260507231803 | 77 | 332 | 8.0 | 16.0 | 0.00 | 0.00 | 0.00 | 25 | 1016.0 |
| 20260507230903 | 76 | 303 | 6.0 | 16.0 | 0.00 | 0.00 | 0.00 | 26 | 1016.1 |
| 20260507230003 | 75 | 268 | 9.0 | 16.0 | 0.00 | 0.00 | 0.00 | 24 | 1016.2 |
| 20260507225402 | 76 | 290 | 7.0 | 14.0 | 0.00 | 0.00 | 0.00 | 25 | 1016.2 |
| 20260507224524 | 76 | 293 | 4.0 | 12.0 | 0.00 | 0.00 | 0.00 | 24 | 1016.3 |
| 20260507223603 | 77 | 312 | 5.0 | 11.0 | 0.00 | 0.00 | 0.00 | 23 | 1016.4 |
| 20260507222703 | 76 | 275 | 6.0 | 12.0 | 0.00 | 0.00 | 0.00 | 25 | 1016.6 |
| 20260507221803 | 76 | 131 | 6.0 | 11.0 | 0.00 | 0.00 | 0.00 | 24 | 1016.7 |
| 20260507220903 | 77 | 171 | 5.0 | 11.0 | 0.00 | 0.00 | 0.00 | 23 | 1016.7 |
| 20260507220003 | 77 | 231 | 4.0 | 11.0 | 0.00 | 0.00 | 0.00 | 23 | 1016.8 |
| 20260507215403 | 76 | 219 | 6.0 | 11.0 | 0.00 | 0.00 | 0.00 | 23 | 1017.0 |
| 20260507214503 | 79 | 153 | 2.0 | 8.0 | 0.00 | 0.00 | 0.00 | 23 | 1017.1 |
| 20260507213603 | 78 | 62 | 4.0 | 8.0 | 0.00 | 0.00 | 0.00 | 23 | 1017.1 |
| 20260507212703 | 77 | 55 | 2.0 | 7.0 | 0.00 | 0.00 | 0.00 | 24 | 1017.4 |
| 20260507211802 | 76 | 68 | 3.0 | 9.0 | 0.00 | 0.00 | 0.00 | 23 | 1017.5 |
| 20260507210903 | 76 | 132 | 3.0 | 9.0 | 0.00 | 0.00 | 0.00 | 25 | 1017.6 |
| 20260507210003 | 77 | 113 | 5.0 | 9.0 | 0.00 | 0.00 | 0.00 | 23 | 1017.7 |
| 20260507205403 | 76 | 111 | 5.0 | 11.0 | 0.00 | 0.00 | 0.00 | 25 | 1017.8 |
| 20260507204503 | 75 | 108 | 5.0 | 11.0 | 0.00 | 0.00 | 0.00 | 25 | 1018.0 |
| 20260507203603 | 74 | 107 | 6.0 | 11.0 | 0.00 | 0.00 | 0.00 | 24 | 1018.1 |
| 20260507202724 | 75 | 98 | 6.0 | 11.0 | 0.00 | 0.00 | 0.00 | 25 | 1018.1 |
| 20260507201803 | 75 | 78 | 6.0 | 11.0 | 0.00 | 0.00 | 0.00 | 25 | 1018.3 |
| 20260507200903 | 74 | 58 | 4.0 | 10.0 | 0.00 | 0.00 | 0.00 | 24 | 1018.5 |
| 20260507200003 | 73 | 85 | 5.0 | 13.0 | 0.00 | 0.00 | 0.00 | 26 | 1018.6 |
| 20260507195424 | 73 | 86 | 6.0 | 13.0 | 0.00 | 0.00 | 0.00 | 25 | 1018.6 |
| 20260507194524 | 72 | 95 | 8.0 | 13.0 | 0.00 | 0.00 | 0.00 | 25 | 1018.7 |
| 20260507193603 | 73 | 84 | 6.0 | 11.0 | 0.00 | 0.00 | 0.00 | 25 | 1018.8 |
| 20260507192703 | 73 | 58 | 6.0 | 11.0 | 0.00 | 0.00 | 0.00 | 25 | 1019.0 |